Location: Chris' Backyard Observatory
(47.3045°N, 122.2839°W)
Time: 19:26:47
(UTC-07:00)

Daily predictions for brighter satellites

Satellite Brightness Start Highest point End
(mag) Time Altitude Azimuth Time Altitude Azimuth Time Altitude Azimuth
Cosmos 2263 Rocket 2.9 20:42:37 10° NW 20:48:03 55° WSW 20:53:29 10° S
Cosmos 2242 Rocket 4.0 20:46:35 10° SSW 20:51:03 70° W 20:55:31 10° N
H-2A R/B 4.0 20:49:33 10° E 20:51:34 12° NE 20:53:34 10° NNE
Cosmos 1825 3.5 20:48:31 10° NNW 20:52:10 44° W 20:55:47 10° SSW
Cosmos 2266 Rocket 4.4 20:46:49 10° N 20:52:55 48° ENE 20:59:03 10° SSE
Cosmos 1655 Rocket 4.4 20:55:56 10° NNW 21:02:19 71° W 21:08:36 10° S
Meteor 1-26 Rocket 4.5 20:58:28 10° S 21:04:01 54° E 21:09:42 10° NNE
NOSS 3-1 (C) 4.4 21:01:49 10° SSE 21:06:21 24° ESE 21:11:14 10° ENE
Cosmos 2322 Rocket 3.3 21:01:18 10° SW 21:06:45 51° WNW 21:12:15 10° NNE
Cosmos 2279 Rocket 4.2 21:03:39 10° SSW 21:09:53 78° W 21:16:09 10° N
Cosmos 1908 Rocket 3.5 21:05:49 10° N 21:10:11 80° E 21:14:32 10° SSE
Cosmos 2360 Rocket 2.2 21:07:11 10° SSW 21:12:50 81° ESE 21:18:32 10° NNE
Cosmos 2237 4.4 21:07:27 10° S 21:12:57 50° ESE 21:18:28 10° NE
USA 229 DEB 3.7 21:06:59 10° SSW 21:13:41 62° ESE 21:20:33 10° NE
USA 229 3.7 21:07:06 10° SSW 21:13:48 62° ESE 21:20:39 10° NE
Terra 4.0 21:13:25 10° ENE 21:14:39 11° NE 21:15:53 10° NE
CZ-4B DEB 2.7 21:11:55 10° S 21:14:56 79° WSW 21:17:59 10° NNW
ATLAS 5 CENTAUR R/B 3.4 21:09:35 10° NW 21:15:13 43° WSW 21:21:17 10° S
Resurs 01 Rocket 3.6 21:12:32 10° SSW 21:16:27 30° W 21:20:24 10° NW
Abrixas rocket 2.2 21:14:23 10° WNW 21:17:42 82° NNE 21:20:39 12° E
Cosmos 1939 Rocket 2.9 21:13:59 10° SSE 21:18:00 88° WSW 21:21:59 10° NNW
Helios 1A 3.6 21:14:13 10° S 21:18:25 60° W 21:22:38 10° NNW
SJ-11-01 4.4 21:16:12 10° SSE 21:20:52 81° WSW 21:25:34 10° NNW
COSMOS 2428 3.0 21:17:20 10° S 21:22:43 46° ESE 21:28:10 10° NE
YAOGAN 6 2.6 21:20:30 10° SSE 21:24:03 64° ENE 21:27:36 10° N
NOSS 3-1 (A) 4.4 21:19:42 10° SSE 21:24:13 24° ESE 21:29:06 10° ENE
Cosmos 1777 Rocket 4.0 21:19:39 10° NNW 21:24:58 82° ENE 21:30:02 11° SSE
Cosmos 1782 Rocket 3.6 21:20:43 10° N 21:25:06 68° E 21:29:30 10° SSE
Cosmos 1606 4.1 21:23:21 15° SE 21:25:18 21° E 21:28:12 10° NE
Sich 1 Rocket 3.9 21:22:06 10° NNW 21:26:35 71° W 21:31:05 10° S
Cosmos 1844 3.9 21:21:26 10° NNW 21:27:04 59° ENE 21:31:42 15° SE
ARGOS 3.9 21:22:45 13° SE 21:27:05 38° ENE 21:32:02 10° N
Okean 1-7 3.3 21:23:28 10° SSE 21:27:42 48° E 21:31:57 10° NNE
Cosmos 2084 3.6 21:24:42 10° NNW 21:28:27 51° NE 21:31:20 16° ESE
USA 267 3.3 21:26:29 10° NE 21:33:04 87° NNW 21:39:38 10° WSW
Atlas Centaur 2 4.1 21:30:19 10° SW 21:34:33 18° S 21:38:05 13° SSE
Cosmos 2322 3.9 21:30:07 10° SSW 21:35:51 81° WNW 21:41:35 10° NNE
SPOT 1/Viking Rocket 4.4 21:35:37 16° ESE 21:39:11 36° ENE 21:43:54 10° N
SL-16 R/B 4.2 21:34:15 10° WSW 21:39:19 32° NW 21:44:24 10° NNE
ATLAS 3B R/B 4.3 21:37:38 10° NW 21:43:22 26° NNE 21:48:52 10° ENE
Meteor 1-25 Rocket 4.2 21:39:34 10° NNW 21:45:11 90° W 21:50:28 11° S
SL-08 RB Rocket 4.4 21:43:17 19° SE 21:46:04 40° ENE 21:50:18 10° N
Okean 2 Rocket 3.1 21:41:51 10° N 21:46:24 82° E 21:50:07 15° SSE
USA 245 4.2 21:42:53 17° SE 21:46:38 50° ENE 21:50:51 10° N
Cosmos 1844 Rocket 2.7 21:43:06 10° NNW 21:48:42 79° WSW 21:53:10 16° SSE
Helios 1B rocket 3.6 21:44:52 10° N 21:48:48 45° WNW 21:52:43 10° SW
MetOp-A 4.1 21:45:01 15° SSE 21:49:27 75° ENE 21:54:50 10° N
Meteor 1-20 Rocket 4.2 21:43:53 10° N 21:49:31 88° ENE 21:54:38 13° S
Meteor 2-10 Rocket 4.4 21:45:02 10° SSW 21:50:45 58° WNW 21:56:24 10° N
Cosmos 2237 Rocket 3.1 21:50:19 18° SSE 21:53:19 29° ESE 21:58:08 10° NE
Cosmos 1633 3.2 21:52:05 10° N 21:55:35 39° ENE 21:56:57 28° ESE
Cosmos 2278 Rocket 2.5 21:50:10 10° NNW 21:55:45 55° ENE 21:59:16 22° SE
CZ-4C R/B 3.0 21:49:48 10° NW 21:56:45 71° NE 22:02:18 21° SE
MOS 1-B Rocket 3.9 21:53:28 19° SSE 21:57:39 66° ENE 22:03:13 10° N
Cosmos 2333 4.2 21:52:28 10° SSW 21:58:11 77° ESE 22:03:59 10° NNE
Cosmos 1536 4.3 21:57:33 10° NNE 22:00:45 22° ENE 22:01:48 20° E
Cosmos 1703 Rocket 4.4 21:56:50 10° SSW 22:01:10 53° WNW 22:05:30 10° N
Cosmos 2333 Rocket 2.5 21:56:13 10° S 22:01:40 45° ESE 22:07:08 10° NE
S3M 4.5 22:03:20 22° SE 22:06:48 41° E 22:12:36 10° NNE
USA 234 3.4 22:04:59 21° SE 22:09:28 64° SW 22:15:58 10° WNW
Meteor 2-6 Rocket 4.3 22:06:15 13° S 22:11:31 67° E 22:17:24 10° NNE
Cosmos 2219 Rocket 2.1 22:08:54 10° SSW 22:14:27 69° ESE 22:20:04 10° NNE
Aureole 2 Rocket 3.9 22:17:50 18° NE 22:17:50 18° NE 22:18:50 10° NE
SPOT 5 2.8 22:16:20 24° S 22:19:08 79° WSW 22:23:40 10° NNW
SeaSat 1 2.5 22:18:21 30° SE 22:20:46 71° ENE 22:25:43 10° NNW
Cosmos 2151 Rocket 3.5 22:16:49 10° N 22:21:17 88° W 22:23:29 30° S
ERS-1 Rocket 4.1 22:21:57 11° SSW 22:26:23 39° W 22:31:05 10° NNW
Cosmos 2298 Rocket 4.3 22:23:40 10° NNW 22:28:56 57° ENE 22:31:06 34° SE
Okean 1 Rocket 3.6 22:25:50 10° N 22:30:09 45° ENE 22:31:13 37° ESE
H-2A R/B 1.9 22:27:57 33° SSE 22:30:11 78° ENE 22:35:07 10° NNW
Cosmos 1602 3.6 22:26:35 10° N 22:30:28 82° E 22:31:28 48° SSE
Cosmos 1674 Rocket 3.6 22:29:51 41° SE 22:30:57 54° E 22:35:11 10° NNE
Cosmos 1782 3.5 22:29:35 14° SSW 22:32:51 52° WNW 22:36:47 10° N
NOSS 0 Rocket 3.8 22:28:19 10° SSW 22:34:24 69° ESE 22:40:32 10° NNE
Cosmos 1937 Rocket 3.8 22:30:05 10° NNW 22:35:16 54° ENE 22:37:07 36° ESE
Cosmos 1745 Rocket 4.0 22:29:07 10° N 22:35:29 72° E 22:38:38 32° SSE
Landsat 7 3.8 22:34:41 39° SE 22:36:24 71° ENE 22:41:10 10° N
Cosmos 1417 Rocket 4.5 22:32:01 19° S 22:36:47 86° E 22:43:12 10° N
Cosmos 1570 Rocket 4.1 22:32:46 10° SSW 22:38:01 81° WNW 22:43:22 10° NNE
Cosmos 990 Rocket 4.4 22:35:29 10° NNW 22:40:31 50° ENE 22:42:10 36° ESE
ASTEX 1 3.4 22:40:11 40° SSE 22:41:58 71° E 22:46:56 10° N
H-2A R/B 2.1 22:41:39 47° SE 22:42:41 64° ENE 22:47:04 10° N
Iridium 4 Rocket 3.1 22:39:12 10° N 22:43:19 59° E 22:44:00 51° SE
Cosmos 1346 Rocket 2.7 22:42:34 45° SSW 22:43:44 88° W 22:47:46 10° N
CRYOSAT 2 4.5 22:44:44 43° SE 22:46:01 58° E 22:50:50 10° N
Cosmos 858 Rocket 4.4 22:42:39 10° NNW 22:47:55 81° ENE 22:49:35 44° SSE
Cosmos 2369 Rocket 4.3 22:44:47 10° N 22:48:26 17° NE 22:52:03 10° E
DMSP B5D2-2 4.1 22:43:37 10° NNE 22:48:51 59° E 22:50:24 42° SSE
Terra 1.8 22:50:16 48° SE 22:51:31 71° ENE 22:56:17 10° N
Cosmos 2208 Rocket 4.3 22:46:12 10° SSW 22:51:32 70° WNW 22:56:50 10° NNE
Abrixas rocket 3.8 22:51:19 10° W 22:53:19 27° WSW 22:53:19 27° WSW
Cosmos 2285 Rocket 4.5 22:52:58 37° SE 22:54:21 41° ESE 23:00:16 10° NE
Cosmos 2297 3.7 22:48:49 10° NNW 22:54:33 72° ENE 22:56:27 43° SE
NOSS 3-1 (C) 3.7 22:50:34 10° SW 22:56:26 72° NW 23:03:09 10° NE
Cosmos 1975 Rocket 4.0 22:57:07 33° E 22:57:07 33° E 23:00:53 10° NNE
Cosmos 1300 Rocket 3.8 22:56:23 10° NNW 23:00:43 65° W 23:01:46 47° SSW
Cosmos 1606 4.4 22:58:23 15° SW 23:00:55 29° WNW 23:04:18 10° N
Cosmos 1763 Rocket 4.0 23:01:12 39° ESE 23:01:13 39° ESE 23:06:07 10° NE
Meteor 1-27 Rocket 3.8 22:57:55 26° SSW 23:01:15 75° WNW 23:06:50 10° N
Cosmos 2150 Rocket 4.0 22:56:51 10° NNW 23:02:21 89° WSW 23:03:56 48° SSE
Cosmos 1898 Rocket 3.6 22:58:27 10° NNW 23:03:37 66° WSW 23:05:08 44° S
COSMOS 2428 4.4 23:02:01 10° WSW 23:07:10 34° NW 23:12:21 10° NNE
ARGOS 4.4 23:04:16 19° SSW 23:07:21 34° W 23:12:16 10° NNW
Cosmos 1980 3.9 23:05:39 14° SW 23:10:31 72° WNW 23:16:12 10° NNE
Cosmos 1125 Rocket 4.5 23:07:37 10° N 23:12:32 36° ENE 23:13:52 31° E
Cosmos 1340 4.1 23:14:27 28° NE 23:14:27 28° NE 23:16:47 10° NNE
NOSS 3-1 (A) 3.6 23:08:27 10° SW 23:14:21 73° NW 23:21:05 10° NE
ATLAS 2AS CENTAUR R/B 3.4 23:14:13 38° SE 23:15:36 41° ESE 23:23:04 10° NE
USA 267 4.3 23:09:35 10° NE 23:15:43 45° NNW 23:21:51 10° W
Spot 4 3.8 23:15:20 59° ESE 23:15:58 67° ENE 23:20:43 10° N
Cosmos 1975 4.2 23:14:02 10° N 23:17:08 28° ENE 23:17:08 28° ENE
SL-16 R/B 2.2 23:16:58 53° SE 23:17:41 57° ESE 23:23:16 10° NE
Cosmos 1553 Rocket 4.5 23:15:17 21° SSW 23:19:27 58° WNW 23:25:34 10° N
Cosmos 371 Rocket 3.6 23:23:06 51° E 23:23:06 51° E 23:27:32 10° NNE
ATLAS CENTAUR R/B 1.8 23:25:08 52° NE 23:25:08 52° NE 23:28:16 10° NE
Cosmos 1500 4.4 23:21:52 10° N 23:24:50 34° NE 23:24:50 34° NE
Okean 3 3.5 23:27:11 66° WSW 23:27:25 68° W 23:31:37 10° N
Cosmos 1378 Rocket 3.6 23:27:26 63° SW 23:27:56 71° W 23:32:24 10° N
Cosmos 1814 Rocket 3.8 23:27:13 61° SSW 23:28:08 86° ESE 23:33:19 10° NNE
CZ-4 R/B 3.7 23:25:15 10° NNE 23:30:07 84° ESE 23:30:39 71° S
CZ-2C R/B 4.3 23:26:34 10° NE 23:30:16 21° E 23:30:16 21° E
Cosmos 2315 Rocket 3.9 23:31:37 53° SSE 23:33:03 71° E 23:39:16 10° NNE
ATLAS 3B R/B 2.8 23:28:31 10° NW 23:35:23 67° NE 23:37:42 42° ESE
Cosmos 468 Rocket 4.4 23:33:18 33° SW 23:35:35 64° WNW 23:40:54 10° NNE
CZ-4B R/B 3.2 23:31:25 10° NNE 23:36:13 82° ESE 23:36:30 77° SSE
Cosmos 2237 Rocket 2.9 23:32:01 12° SW 23:37:06 51° WNW 23:42:40 10° NNE
Cosmos 1536 4.0 23:33:38 10° NNW 23:37:17 33° W 23:37:33 33° W
IGS 5A 4.3 23:38:04 40° WSW 23:38:12 40° W 23:42:09 10° NNW
Cosmos 2278 Rocket 3.6 23:34:52 10° NW 23:39:28 26° WSW 23:41:08 23° SW
Cosmos 1544 Rocket 3.8 23:35:31 10° N 23:39:37 61° NE 23:39:37 61° NE
Cosmos 332 Rocket 3.7 23:44:04 72° SW 23:44:30 80° WNW 23:49:21 10° NNE
Geosat 3.8 23:39:49 10° NNE 23:44:53 86° ESE 23:45:24 72° SSW
CZ-4C R/B 3.9 23:38:47 10° NW 23:45:07 34° WSW 23:47:30 28° SSW
Cosmos 2333 Rocket 3.7 23:40:47 10° WSW 23:46:03 36° NW 23:51:22 10° NNE
Cosmos 841 Rocket 3.3 23:48:14 77° SE 23:48:22 78° ESE 23:53:34 10° NNE
deb Chang Zheng 4 4.4 23:44:27 10° N 23:48:40 46° WNW 23:49:30 40° WSW
Okean 1 4.3 23:52:08 39° NE 23:52:08 39° NE 23:54:54 10° NNE
CZ-4C R/B 4.2 23:52:43 43° NW 23:52:43 43° NW 23:55:23 10° NNW
CZ-2C R/B 3.8 23:52:24 36° ENE 23:52:47 37° ENE 23:57:23 10° N
